Hourly Data Report for February 04, 2021

TORONTO CITY
ONTARIO
Current Station Operator: ECCC - MSC

43°40'00.000" N
79°24'00.000" W
112.50 m
6158355
71508
XTO

Download Data

Hourly Data (February 2021)
Hourly Data Report for February 4, 2021
TIME
LST
Temp Definition
°C
Dew Point Definition
°C
Rel Hum Definition
%
Precip. Amount Definition
mm

Wind Dir Definition
10's deg

Wind Spd Definition
km/h
Visibility Definition
km
Stn Press Definition
kPa
Hmdx Definition


Wind Chill Definition


Weather Definition


00:00 -1.7 -8.2 61 0.0       99.90     LegendNANA
01:00 -1.7 -8.2 61 0.0       99.92     LegendNANA
02:00 -1.8 -7.9 63 0.0       99.95     LegendNANA
03:00 -2.0 -7.7 65 0.0       99.99     LegendNANA
04:00 -2.3 -7.4 68 0.0       100.02     LegendNANA
05:00 -2.5 -7.3 70 0.0       100.06     LegendNANA
06:00 -2.7 -7.0 72 0.0       100.06     LegendNANA
07:00 -2.6 -6.3 75 0.0       100.06     LegendNANA
08:00 -3.6 -7.1 77 0.0       100.15     LegendNANA
09:00 -1.8 -6.4 71 0.0       100.15     LegendNANA
10:00 -0.5 -7.2 61 0.0       100.15     LegendNANA
11:00 1.4 -7.4 52 0.0       100.13     LegendNANA
12:00 2.7 -7.8 46 0.0       100.02     LegendNANA
13:00 3.0 -8.0 44 0.0       99.94     LegendNANA
14:00 2.1 -6.5 53 0.0       99.89     LegendNANA
15:00 1.7 -4.2 65 0.0       99.79     LegendNANA
16:00 1.6 -4.4 65 0.0       99.68     LegendNANA
17:00 1.1 -3.8 70 0.0       99.59     LegendNANA
18:00 0.9 -4.2 69 0.0       99.52     LegendNANA
19:00 1.3 -3.3 71 0.0       99.40     LegendNANA
20:00 1.5 -4.8 63 0.0       99.27     LegendNANA
21:00 2.0 -4.0 65 0.0       99.03     LegendNANA
22:00 2.7 -3.3 64 0.0       98.94     LegendNANA
23:00 2.8 -3.3 64 0.0       98.84     LegendNANA

Notes on Data Quality.

Legend

  • E = Estimated
  • M = Missing
  • NA = Not Available*
  • [empty] = Indicates an unobserved value
Date modified: